Location: Unspecified
(0.0000°N, 0.0000°E)
Time: 03:45:59
(UTC+00:00)

SR - Pass Details

Date: 21 December 2018
Orbit: 584 x 872 km, 66.7° (Epoch: 18 March)

Event Time Altitude Azimuth Distance (km) Brightness Sun altitude
Rises 11:29:53 0° 323° (NW) 2,806 ? 65.6°
Reaches altitude 10° 11:32:18 10° 313° (NW) 1,897 ? 65.7°
Maximum altitude 11:36:03 31° 250° (WSW) 1,028 ? 66.0°
Drops below altitude 10° 11:39:51 10° 187° (S) 1,919 ? 66.1°
Sets 11:42:19 0° 176° (S) 2,845 ? 66.3°
